This is the latest recevied weather packets stored in our database for station/object IN3APK-3. If no packets are shown the sender has not sent any weather packets the latest 1 day(s).
| Time | Temp. | Humidity | Pressure | Rain* | Wind** | Luminosity | Snow |
|---|---|---|---|---|---|---|---|
| 1777735899 | 31.67° C | 25% | 1014.5 hPa | - | - | - | - |
| 1777735247 | 31.67° C | 25% | 1014.7 hPa | - | - | - | - |
| 1777734595 | 31.67° C | 25% | 1014.7 hPa | - | - | - | - |
| 1777733944 | 32.78° C | 25% | 1014.8 hPa | - | - | - | - |
| 1777733292 | 33.33° C | 25% | 1014.8 hPa | - | - | - | - |
| 1777732641 | 32.78° C | 26% | 1015 hPa | - | - | - | - |
| 1777731989 | 32.78° C | 26% | 1015.1 hPa | - | - | - | - |
| 1777731337 | 32.78° C | 26% | 1015.3 hPa | - | - | - | - |
| 1777730033 | 32.78° C | 28% | 1015.5 hPa | - | - | - | - |
| 1777729381 | 31.67° C | 29% | 1015.8 hPa | - | - | - | - |
| 1777728076 | 31.11° C | 31% | 1016.1 hPa | - | - | - | - |
| 1777727422 | 29.44° C | 32% | 1016.2 hPa | - | - | - | - |
| 1777726770 | 29.44° C | 32% | 1016.3 hPa | - | - | - | - |
| 1777726117 | 28.89° C | 32% | 1016.4 hPa | - | - | - | - |
| 1777725465 | 28.89° C | 33% | 1016.6 hPa | - | - | - | - |
| 1777724812 | 27.78° C | 33% | 1016.7 hPa | - | - | - | - |
| 1777724159 | 26.11° C | 34% | 1016.9 hPa | - | - | - | - |
| 1777723506 | 25° C | 35% | 1016.9 hPa | - | - | - | - |
| 1777722854 | 24.44° C | 37% | 1017.1 hPa | - | - | - | - |
| 1777722201 | 23.33° C | 38% | 1017.3 hPa | - | - | - | - |
| 1777721549 | 22.78° C | 39% | 1017.5 hPa | - | - | - | - |
| 1777720243 | 21.11° C | 40% | 1017.9 hPa | - | - | - | - |
| 1777719591 | 21.11° C | 40% | 1018.1 hPa | - | - | - | - |
| 1777718938 | 21.11° C | 40% | 1018.3 hPa | - | - | - | - |
| 1777718285 | 20.56° C | 41% | 1018.4 hPa | - | - | - | - |
* Rain since midnight (hover to see other rain measurements)
** Current wind speed in m/s (hover to see current wind gust speed)